SL-14 DEB, 45293

Orbit data source: Space-Track

SL-14 DEB, 45293 is space debris in LEO originally from a launch on Thu, 15 Aug 1991 UTC launched from the Plesetsk Missile And Space Complex (PKMTR). Debris objects in space refer to the collection of defunct objects orbiting the Earth. Examples of debris include non-operational satellites, rocket bodies, and fragments generated from explosions, collisions, or faulty payload assembly.

Loading next visibility...
Identifier
45293, 1991-056AF
Orbit
LEO
Last TLE update
20 hours ago
Origin
Manufacturer
Unknown
Mission
Spacecraft
Bus & Motor
Unknown
Mass
Unknown
Launch date (UTC)
1991-08-15 (34 years ago)
Launch vehicle
Unknown
Launch site
Plesetsk Missile And Space Complex (PKMTR)
Object type
Payload
Rocket body
Debris
Shape & HBR
Unknown
Radar Cross Section
Small (<0.1 m²)

Expand to show TLE details & history

TLE from 20 hours ago
0 SL-14 DEB
1 45293U 91056AF  25128.40727836  .00029113  00000-0  12612-1 0  9998
2 45293  82.5291 287.8047 0164030 251.3339 106.9972 14.17161848261350
Epoch: 2025-05-08T09:46Z
Definitive object data (Epoch: 2025-05-08T09:46:28.85Z)
Latitude
-0.00001°
Longitude
-85.29373°
Altitude
874.271 km
Speed
7.396 km/s
True Right ascension
19h 11m 13s
True Declination
0° 00' 00"
Sunlit
Object was in daylight at TLE epoch
Visualization TLE readout
Latitude
2.50796°
Longitude
-85.6797°
Altitude
883.577 km
Speed
7.387 km/s
Apparent Right ascension
21h 44m 32s
Apparent Declination
-26° 34' 37"
Sunlit
Object is in daylight
Visualization observer readout
Local Sidereal Time
14:16:01
Azimuth
98.712° ESE
Elevation
-33.059°
Doppler factor
1
Orbital elements
Apogee altitude
950.342 km
Perigee altitude
713.804 km
Semi-major axis
7,210.21 km
Eccentricity
0.016403
Inclination
82.5291°
RAAN
287.8047°
Arg. of periapsis
251.3339°
True anomaly
108.78374°
Mean anomaly
106.9972°
Eccentric anomaly
107.89157°
Mean motion
3.54504 °/min
BSTAR
0.012612
Orbital period
101.55 mins
Loading maneuver chart data...
Loading SW <> Apogee altitude chart data...
Loading historical data...
Loading historical data...
Loading historical data...
Loading historical data...
Loading historical data...
Loading historical data...
Loading historical data...

SL-14 DEB Visibility forecast

Observer location: undefined°, undefined°

Span
Click to sort rows by Start time (UTC) header in descending order
Start Az.
Max El. time (UTC)
Max El. Az.
Max El.
End time (UTC)
End Az.
11 mins2025-05-09 11:18:14.044Z185.879° SSW2025-05-09 11:23:14.044Z6.55° NNE44.958°2025-05-09 11:29:14.044Z7.688° NNE
9 mins2025-05-09 21:57:14.044Z6.43° NNE2025-05-09 22:01:14.044Z62.094° ENE37.679°2025-05-09 22:06:14.044Z151.625° SSE
6 mins2025-05-09 23:41:14.044Z306.007° NW2025-05-09 23:43:14.044Z280.989° WNW18.7°2025-05-09 23:47:14.044Z233.405° WSW
|